Regional Weather Roundup
Issued by NWS

Home | Current Version | Previous Version | Graphics & Text | Print | Product List | Glossary On
Versions: 1 2 3 4 5 6 7 8 9 10 11 12 13 14 15 16 17 18 19 20 21 22 23 24 25 26 27 28 29 30 31 32 33 34 35 36 37 38 39 40 41 42 43 44 45 46 47 48 49 50
000
ASUS43 KIND 221009
RWRIN

WEATHER ROUNDUP FOR INDIANA
NATIONAL WEATHER SERVICE INDIANAPOLIS IN
600 AM EDT SUN APR 22 2018

NOTE: "FAIR" INDICATES FEW OR NO CLOUDS BELOW 12,000 FEET WITH NO
SIGNIFICANT WEATHER AND/OR OBSTRUCTIONS TO VISIBILITY.

* - STATION DOES NOT REPORT WEATHER SUCH AS PRECIPITATION OR FOG.

+ - STATION NOT QUALITY CONTROLLED BY THE NATIONAL WEATHER SERVICE.
    USE DATA WITH CAUTION...ESPECIALLY DEWPOINT AND RELATIVE
    HUMIDITY OBSERVATIONS.

INZ001>003-010>013-019-020-221100-
NORTHWEST INDIANA

CITY           SKY/WX    TMP DP  RH WIND       PRES   REMARKS
GARY /AIRPORT/ CLOUDY    43  37  81 NE5       30.34F
KNOX *+        FAIR      43  32  65 NE8       30.33F
LA PORTE +     FAIR      43  30  60 E3        30.35F
MICHIGAN CITY+ FAIR      37  32  81 CALM      30.36S
MONTICELLO +   FAIR      46  22  38 E5        30.31F
RENSSELAER +   FAIR      43  25  49 E8        30.32S
VALPARAISO     FAIR      46  31  55 NE8       30.33F

$$

LMZ046-743>745-221100-
SOUTHERN LAKE MICHIGAN

STATION/POSITION TIME  TEMP    WIND        PRES    WAVE
                       AIR SEA DIR/SP/G            HT
                 (UTC) (F)     (DEG/KT/KT) (MB)    (FT)
BURNS HARBOR     0940   49     100/ 10/ 12 1027.8F
MICHIGAN CITY    0940   45     110/  6/  7   N/A

$$

INZ004-005-014>016-021>024-221100-
NORTH CENTRAL INDIANA

CITY           SKY/WX    TMP DP  RH WIND       PRES   REMARKS
GOSHEN         CLOUDY    39  31  72 NE3       30.35F
LOGANSPORT +   FAIR      45  23  42 NE7       30.33R
PERU/GRISSOM   CLOUDY   N/A N/A N/A E5          N/A
ROCHESTER +    FAIR      45  27  49 NE9       30.33S
SOUTH BEND     CLOUDY    44  26  49 CALM      30.36S
WARSAW +       FAIR      41  25  52 E3        30.35R

$$

INZ006>009-017-018-025>027-221100-
NORTHEAST INDIANA

CITY           SKY/WX    TMP DP  RH WIND       PRES   REMARKS
AUBURN +       FAIR      36  25  64 NE3       30.36S
FORT WAYNE     CLOUDY    42  24  49 E8        30.35S
HUNTINGTON +   FAIR      42  23  47 NE5       30.33S

$$

INZ028-029-035-036-043>045-051>053-221100-
WEST CENTRAL INDIANA

CITY           SKY/WX    TMP DP  RH WIND       PRES   REMARKS
CRAWFORDSVL +  FAIR      42  30  63 NE5       30.28F
GREENCASTLE +  FAIR      45  27  49 E6        30.27S
LAFAYETTE      FAIR      45  27  49 E8        30.31S
TERRE HAUTE    FAIR      48  30  49 NE10      30.24F

$$

INZ030>032-037>040-046>048-054>057-064-065-221100-
CENTRAL INDIANA

CITY           SKY/WX    TMP DP  RH WIND       PRES   REMARKS
FRANKFORT +    FAIR      47  26  42 E8        30.32F
GREENWOOD *+   CLOUDY    44  27  51 NE6       30.28S
INDIANAPOLIS   MOCLDY    46  26  45 NE9       30.28F
-EAGLE CREEK   CLOUDY    48  25  40 NE6       30.28F
KOKOMO +       FAIR      43  26  51 S7        30.33R
MARION +       CLOUDY    44  21  39 CALM      30.32R
MT COMFORT *+  CLOUDY    41  34  75 N8        30.30R
SHELBYVILLE    FAIR      47  28  47 NE8       30.27S
ZIONSVILLE +   FAIR      44  26  50 NE6       30.30F

$$

INZ033-034-041-042-049-050-058-059-221100-
EAST CENTRAL INDIANA

CITY           SKY/WX    TMP DP  RH WIND       PRES   REMARKS
MUNCIE         FAIR      45  23  42 E8        30.30S
RICHMOND +     FAIR      41  28  60 E7        30.30R

$$

INZ060-061-067>069-081>083-085>088-221100-
SOUTHWEST INDIANA

CITY           SKY/WX    TMP DP  RH WIND       PRES   REMARKS
EVANSVILLE     CLOUDY    53  35  50 CALM      30.20S
HUNTINGBURG +  CLOUDY    53  29  39 E7        30.20S
WASHINGTON +   MOCLDY    50  28  42 E8        30.20F

$$

INZ062-063-066-070>080-084-089>092-221100-
SOUTH CENTRAL AND SOUTHEAST INDIANA

CITY           SKY/WX    TMP DP  RH WIND       PRES   REMARKS
BATESVILLE +   PTCLDY    45  27  49 MISG      30.28S
BEDFORD +      FAIR      50  23  34 NE8       30.22F
BLOOMINGTON    FAIR      50  26  39 E9        30.24F
FRENCH LICK *+ FAIR      50  18  27 NE9       30.21S
MADISON *+     FAIR      50  25  37 E8        30.27S
NORTH VERNON + FAIR      46  27  46 E7        30.26F
SEYMOUR +      FAIR      48  30  49 NE5       30.26S

$$




USA.gov is the U.S. government's official web portal to all federal, state and local government web resources and services.